Regional Weather Roundup
Issued by NWS

Home | Current Version | Previous Version | Graphics & Text | Print | Product List | Glossary On
Versions: 1 2 3 4 5 6 7 8 9 10 11 12 13 14 15 16 17 18 19 20 21 22 23 24 25 26 27
000
ASUS45 KBOU 251407
RWRCO

WEATHER ROUNDUP FOR COLORADO
NATIONAL WEATHER SERVICE DENVER/BOULDER CO
800 AM MDT TUE JUL 25 2017

NOTE: "FAIR" INDICATES FEW OR NO CLOUDS BELOW 12000 FEET WITH NO
SIGNIFICANT WEATHER AND/OR OBSTRUCTIONS TO VISIBILITY.

COZ001>005-013-030-031-251500-
...NORTHWEST COLORADO...

CITY           SKY/WX    TMP DP  RH WIND       PRES   REMARKS
CRAIG          CLOUDY    63  57  81 E6        30.25R
HAYDEN         FAIR      63  50  63 W6        30.28R
MEEKER         CLOUDY    62  59  90 CALM      30.26S
RABBIT EARS PA CLOUDY    52  45  76 W3        30.53S
STEAMBOAT SPGS FAIR      60  49  68 CALM      30.29R
WALDEN         FAIR      57  45  62 SE7       30.36R
$$

COZ006>008-011-251500-
...WEST CENTRAL VALLEYS...

CITY           SKY/WX    TMP DP  RH WIND       PRES   REMARKS
GRAND JUNCTION CLOUDY    67  64  90 E5        30.18R
MONTROSE       CLOUDY    64  61  90 SW6       30.26S
EAGLE          PTSUNNY   64  54  68 CALM      30.30R
RIFLE          LGT RAIN  64  61  90 NE3       30.23S
DELTA          RAIN      68  61  78 NE3       30.23R
NUCLA          CLOUDY    63  59  88 CALM      30.28S
$$

COZ017>023-064>068-251500-
...SOUTHWEST COLORADO...

CITY           SKY/WX    TMP DP  RH WIND       PRES   REMARKS
DURANGO        FAIR      62  57  83 CALM      30.30R
CORTEZ         FAIR      66  61  84 CALM      30.23S
PAGOSA SPRINGS CLOUDY    61  57  88 CALM      30.39R
TELLURIDE      CLOUDY    58  52  79 E7        30.45S
WOLF CREEK PAS RAIN      45  45 100 S13G22    30.69S VSB<1/4
$$

COZ009-010-012-014-032>034-037-058>063-251500-
...CENTRAL COLORADO...

CITY           SKY/WX    TMP DP  RH WIND       PRES   REMARKS
ASPEN          CLOUDY    60  51  72 NW6       30.35R
BUENA VISTA    LGT RAIN  58  54  85 CALM      30.39R
COPPER MTN     CLOUDY    54  43  66 S16       30.64S
BERTHOUD PASS  CLOUDY    45  32  61 W7G25     30.69S
COTTONWOOD PAS RAIN      55  48  76 E9        30.51R
GUNNISON       FAIR      58  55  90 NE5       30.40R
KREMMLING      FAIR      72  48  43 SE5       30.33S
LEADVILLE      CLOUDY    52  48  86 CALM      30.49S
MONARCH PASS   CLOUDY    45  45 100 SW16      30.75S
SALIDA         CLOUDY    65  51  59 N7        30.43R
SUNLIGHT       CLOUDY    50  43  76 S6        30.58R
WILKERSON PASS LGT RAIN  48  43  81 SW10G20   30.61S
$$

COZ069>075-251500-
...SAN LUIS VALLEY/SANGRE DE CRISTO MOUNTAINS...

CITY           SKY/WX    TMP DP  RH WIND       PRES   REMARKS
ALAMOSA        PTSUNNY   64  55  72 NW5       30.36R
DEL NORTE      CLOUDY    60  52  75 W8        30.40S
LA VETA PASS   NOT AVBL
SAGUACHE         N/A    N/A N/A N/A MISG        N/A
$$

COZ035-036-038>040-251500-
...NORTHERN COLORADO FRONT RANGE...

CITY           SKY/WX    TMP DP  RH WIND       PRES   REMARKS
DENVER INTL AP PTSUNNY   75  48  38 SW9       30.08R
DMNS CITY PARK   N/A     75  52  44 W3        30.10R
AURORA         PTSUNNY   74  51  44 SW8       30.11R
FRONT RANGE AP PTSUNNY   77  46  33 SW8       30.10R
ERIE MUNI ARPT FAIR      71  52  50 CALM      30.06S
BOULDER MUN AP FAIR      72  50  46 CALM      30.07S
CENTENNIAL     PTSUNNY   79  45  29 SW14      30.12R
BROOMFIELD     PTSUNNY   77  45  31 S6        30.11R
FORT COLLINS   FAIR      70  52  52 SW5       30.07R
LONGMONT       FAIR      71  56  59 CALM      30.08R
$$

COZ041-046-047-076>085-087-088-251500-
...PIKES PEAK/PALMER DIVIDE AND SOUTHERN FOOTHILLS...

CITY           SKY/WX    TMP DP  RH WIND       PRES   REMARKS
COLO. SPRINGS  PTSUNNY   73  57  57 N3        30.18R
A. F. ACADEMY  PTSUNNY   74  47  39 NE6       30.19S
SCHRIEVER AFB  FAIR      73  50  45 W6        30.18R
CHEYENNE MTN   FAIR      73  46  37 N5        30.18S
ELLICOTT       NOT AVBL
FALCON           N/A     73  45  37 W16       30.23S
FORT CARSON    FAIR      69  55  60 NW6       30.14S
LIMON          FAIR      66  61  84 SE3       30.13R
MONUMENT HILL  FAIR      68  46  45 SW12      30.26R
CANON CITY     SUNNY     79  54  41 W14       30.13S
WALSENBURG     FAIR      79  52  38 W15       30.20R
TRINIDAD       FAIR      75  53  46 W8        30.17R
$$

COZ042>045-048>051-090-091-251500-
...NORTHEAST COLORADO...

CITY           SKY/WX    TMP DP  RH WIND       PRES   REMARKS
GREELEY ARPT   FAIR      65  56  72 NW5       30.05R
AKRON          FAIR      73  59  61 S10       30.04S
BURLINGTON     FAIR      74  65  73 S15       30.05S
WRAY           NOT AVBL
YUMA           FAIR      73  61  64 S12       30.02S
STERLING       FAIR      72  63  73 S6        29.99R
HOLYOKE        FAIR      77  64  65 S8        30.01S
FORT MORGAN    FAIR      70  59  67 CALM      30.03S
$$

COZ086-089-092>099-251500-
...SOUTHEAST COLORADO...

CITY           SKY/WX    TMP DP  RH WIND       PRES   REMARKS
PUEBLO         FAIR      73  56  54 CALM      30.07R
LA JUNTA       FAIR      80  58  46 SW10      30.04R
LAMAR          FAIR      78  63  59 SE7       30.01S
SPRINGFIELD      N/A     77  61  57 SW14G22   30.08S
$$




USA.gov is the U.S. government's official web portal to all federal, state and local government web resources and services.